This demonstration page uses our WeatherBlox Daily Observations layout. Learn more.

Left ArrowRight Arrow

Hourly Observations for April 17, 2017

Temp ( °F °C ) Dew Point ( °F °C ) Humidity (%) Winds ( mph kmh ) Pressure ( in mb ) Visibility ( mi km ) Precip ( " mm )
12:15 am 00:15 Cloudy 72 22 59 15 65 65 W 5 7 30.00 1016 10 16 N/A
12:35 am 00:35 Mostly Cloudy 72 22 59 15 65 65 N N/A 30.00 1016 10 16 N/A
12:55 am 00:55 Mostly Cloudy 70 21 59 15 69 69 WSW 3 6 30.00 1016 10 16 N/A
1:15 am 01:15 Cloudy 68 20 59 15 73 73 W 5 7 30.00 1016 10 16 N/A
1:35 am 01:35 Cloudy 70 21 59 15 69 69 WSW 5 7 29.97 1015 10 16 N/A
1:55 am 01:55 Cloudy 70 21 59 15 69 69 SSW 6 9 29.97 1015 10 16 N/A
2:15 am 02:15 Cloudy 70 21 59 15 69 69 WSW 7 11 29.97 1015 10 16 N/A
2:35 am 02:35 Cloudy 70 21 59 15 69 69 W 9 15 29.97 1015 10 16 N/A
2:55 am 02:55 Mostly Cloudy 70 21 59 15 69 69 SSW 5 7 29.94 1014 10 16 N/A
3:15 am 03:15 Partly Cloudy 68 20 57 14 69 69 SSW 6 9 29.97 1015 10 16 N/A
3:35 am 03:35 Partly Cloudy 70 21 57 14 64 64 SW 6 9 29.97 1015 10 16 N/A
3:55 am 03:55 Partly Cloudy 70 21 57 14 64 64 N N/A 29.97 1015 10 16 N/A
4:15 am 04:15 Partly Cloudy 68 20 57 14 69 69 N N/A 29.97 1015 10 16 N/A
4:35 am 04:35 Mostly Cloudy 68 20 59 15 73 73 N N/A 29.97 1015 10 16 N/A
4:55 am 04:55 Cloudy 68 20 57 14 69 69 W 3 6 29.97 1015 10 16 N/A
5:15 am 05:15 Cloudy 66 19 59 15 78 78 W 7 11 29.97 1015 10 16 N/A
5:35 am 05:35 Cloudy with Light Rain 68 20 59 15 73 73 NW 7 11 29.97 1015 10 16 N/A
5:55 am 05:55 Cloudy 68 20 59 15 73 73 N N/A 29.97 1015 10 16 N/A
6:15 am 06:15 Partly Cloudy 68 20 59 15 73 73 SSW 3 6 29.97 1015 10 16 N/A
6:35 am 06:35 Mostly Cloudy 66 19 59 15 78 78 WSW 3 6 30.00 1016 10 16 N/A
6:55 am 06:55 Cloudy 66 19 57 14 73 73 W 10 17 30.00 1016 10 16 N/A
7:15 am 07:15 Cloudy 70 21 59 15 69 69 W 8 13 30.00 1016 10 16 N/A
7:35 am 07:35 Mostly Cloudy 70 21 59 15 69 69 W 5 7 30.00 1016 10 16 N/A
7:55 am 07:55 Mostly Cloudy 70 21 59 15 69 69 NW 7 11 30.03 1017 10 16 N/A
8:15 am 08:15 Cloudy with Light Rain 70 21 59 15 69 69 NW 8 13 30.03 1017 10 16 N/A
8:35 am 08:35 Cloudy with Light Rain 68 20 61 16 78 78 NNW 9 15 30.03 1017 10 16 N/A
8:55 am 08:55 Cloudy with Rain 68 20 61 16 78 78 NW 7 11 30.03 1017 10 16 N/A
9:15 am 09:15 Cloudy with Light Rain 68 20 61 16 78 78 NW 6 9 30.03 1017 10 16 N/A
9:35 am 09:35 Cloudy with Light Rain 66 19 61 16 83 83 N 10 17 30.03 1017 10 16 N/A
9:55 am 09:55 Cloudy with Light Rain 64 18 61 16 88 88 N 9 15 30.06 1018 10 16 N/A
10:15 am 10:15 Cloudy with Drizzle 63 17 61 16 94 94 N 12 19 30.06 1018 10 16 N/A
10:35 am 10:35 Cloudy with Rain 63 17 59 15 88 88 N 9 15 30.06 1018 10 16 N/A
10:55 am 10:55 Cloudy with Rain 61 16 59 15 94 94 N 9 15 30.09 1019 7 11 0.04 1.02
11:15 am 11:15 Cloudy with Light Rain 61 16 61 16 100 100 N 3 6 30.09 1019 10 16 0.02 0.51
11:35 am 11:35 Cloudy with Light Rain 61 16 61 16 100 100 N 7 11 30.09 1019 10 16 0.03 0.76
11:55 am 11:55 Cloudy with Light Rain 63 17 61 16 94 94 NNW 7 11 30.09 1019 10 16 0.04 1.02
12:15 pm 12:15 Cloudy with Light Rain 63 17 61 16 94 94 WNW 5 7 30.09 1019 10 16 0.01 0.25
12:35 pm 12:35 Cloudy 63 17 59 15 88 88 W 5 7 30.09 1019 10 16 0.01 0.25
12:55 pm 12:55 Cloudy with Light Rain 63 17 61 16 94 94 W 5 7 30.09 1019 10 16 0.01 0.25
1:15 pm 13:15 Cloudy with Light Rain 63 17 61 16 94 94 WNW 5 7 30.09 1019 10 16 N/A
1:35 pm 13:35 Cloudy 63 17 61 16 94 94 WNW 6 9 30.09 1019 10 16 N/A
1:55 pm 13:55 Mostly Cloudy 64 18 61 16 88 88 NW 3 6 30.09 1019 10 16 N/A
2:15 pm 14:15 Mostly Cloudy 64 18 59 15 83 83 W 6 9 30.09 1019 10 16 N/A
2:35 pm 14:35 Mostly Cloudy 64 18 61 16 88 88 NW 7 11 30.09 1019 10 16 N/A
2:55 pm 14:55 Partly Cloudy 66 19 61 16 83 83 WNW 3 6 30.06 1018 10 16 N/A
3:15 pm 15:15 Sunny 66 19 61 16 83 83 W 3 6 30.06 1018 10 16 N/A
3:35 pm 15:35 Sunny 68 20 61 16 78 78 NNW 7 11 30.06 1018 10 16 N/A
3:55 pm 15:55 Partly Cloudy 68 20 59 15 73 73 WNW 6 9 30.06 1018 10 16 N/A
4:15 pm 16:15 Partly Cloudy 70 21 59 15 69 69 NNW 5 7 30.06 1018 10 16 N/A
4:35 pm 16:35 Partly Cloudy 70 21 55 13 60 60 NNW 8 13 30.06 1018 10 16 N/A
4:55 pm 16:55 Partly Cloudy 72 22 54 12 53 53 N 6 9 30.06 1018 10 16 N/A
5:15 pm 17:15 Partly Cloudy 72 22 52 11 50 50 N 7 11 30.06 1018 10 16 N/A
5:35 pm 17:35 Sunny 72 22 48 9 44 44 NNE 3 6 30.06 1018 10 16 N/A
5:55 pm 17:55 Sunny 72 22 46 8 41 41 NNE 3 6 30.06 1018 10 16 N/A
6:15 pm 18:15 Sunny 72 22 46 8 41 41 N 6 9 30.06 1018 10 16 N/A
6:35 pm 18:35 Sunny 72 22 46 8 41 41 N 3 6 30.06 1018 10 16 N/A
6:55 pm 18:55 Sunny 72 22 46 8 41 41 N 5 7 30.06 1018 10 16 N/A
7:15 pm 19:15 Sunny 70 21 45 7 40 40 NE 5 7 30.06 1018 10 16 N/A
7:35 pm 19:35 Sunny 68 20 45 7 43 43 NE 3 6 30.06 1018 10 16 N/A
7:55 pm 19:55 Clear 68 20 46 8 46 46 ENE 3 6 30.09 1019 10 16 N/A
8:15 pm 20:15 Clear 64 18 48 9 56 56 N N/A 30.09 1019 10 16 N/A
8:35 pm 20:35 Clear 61 16 50 10 68 68 N N/A 30.09 1019 10 16 N/A
8:55 pm 20:55 Clear 61 16 52 11 72 72 N N/A 30.12 1020 10 16 N/A
9:15 pm 21:15 Clear 59 15 52 11 77 77 WNW 3 6 30.12 1020 10 16 N/A
9:35 pm 21:35 Clear 59 15 52 11 77 77 NW 3 6 30.12 1020 10 16 N/A
9:55 pm 21:55 Clear 59 15 54 12 82 82 NNW 3 6 30.15 1021 10 16 N/A
10:15 pm 22:15 Clear 61 16 50 10 68 68 NNW 3 6 30.15 1021 10 16 N/A
10:35 pm 22:35 Clear 61 16 50 10 68 68 NNW 5 7 30.15 1021 10 16 N/A
10:55 pm 22:55 Clear 63 17 46 8 56 56 NNW 8 13 30.15 1021 10 16 N/A
11:15 pm 23:15 Clear 63 17 45 7 52 52 N 7 11 30.15 1021 10 16 N/A
11:35 pm 23:35 Clear 63 17 43 6 49 49 N 7 11 30.15 1021 10 16 N/A
11:55 pm 23:55 Clear 61 16 43 6 52 52 N 7 11 30.18 1022 10 16 N/A

Powered by AerisWeather